Theta_e
326 326 327 326 323 323 327 332 335 339 343 341 336 335 340 341 333 334 350 355 351 354 356 354 356 358 358 356 354 352 350 351 353 356 365 374 369 363 362 359 358 357 357 357 354 350 350 350 350 351 352 354 355 355 355 356 356 355 356 356 355 355 355 355 355 355 355 355 356 356 356 355 354 354 354 354 355 355 355 355 354 354 355 355 356 355 353
325 325 326 325 323 326 333 336 337 341 345 346 345 347 349 348 345 346 351 351 351 354 354 353 355 355 355 353 351 350 349 350 352 354 361 367 364 361 364 365 363 358 357 357 352 350 350 350 349 351 352 353 355 355 355 355 354 354 354 355 356 356 355 356 355 355 355 355 355 354 354 352 353 353 353 353 353 352 353 354 354 355 355 354 354 353 352
324 326 328 325 324 331 335 335 336 342 346 346 347 348 349 348 348 348 347 348 350 348 348 352 354 353 351 349 350 351 349 348 351 355 359 359 358 357 358 363 367 361 358 357 352 350 351 350 350 350 351 353 354 355 356 355 354 353 353 355 357 356 356 355 354 355 354 353 353 353 352 353 354 353 352 351 350 351 353 354 354 353 354 353 352 352 351
323 326 326 323 324 332 335 334 335 340 345 347 347 347 347 348 347 347 349 349 350 346 344 346 349 349 348 348 350 351 348 347 350 354 355 354 355 353 352 356 359 355 353 354 353 351 351 351 351 351 351 354 355 355 356 357 356 355 355 356 357 356 355 355 354 354 354 354 355 354 354 354 352 350 349 350 352 354 353 352 352 351 351 351 351 351 351
327 330 325 321 330 340 340 336 334 337 343 346 346 345 345 345 346 349 350 349 349 347 345 345 346 347 348 349 350 350 349 348 349 351 352 351 350 351 349 350 352 350 348 348 348 348 350 352 352 351 352 354 355 355 355 356 357 358 358 359 358 357 357 357 356 356 356 356 355 355 354 352 349 348 349 351 352 352 351 350 350 350 351 351 351 352 351
326 332 327 326 341 347 341 335 334 335 338 342 346 345 343 343 345 346 347 347 347 346 346 346 345 345 347 347 346 348 349 348 348 351 351 350 350 349 347 347 349 349 347 346 346 347 348 349 351 352 353 353 354 355 355 355 356 357 358 359 359 359 359 358 358 357 356 356 354 355 354 352 351 352 352 351 351 350 351 350 350 350 350 350 351 352 351
327 335 333 330 339 345 340 336 338 337 334 336 342 344 342 341 342 344 344 345 347 345 345 345 344 344 347 346 345 345 346 348 349 350 350 350 349 349 348 347 347 347 346 346 346 344 343 345 348 350 353 354 354 354 355 355 355 355 356 358 359 359 359 358 359 358 357 356 356 356 356 354 353 353 352 351 351 352 352 351 351 351 351 350 352 352 351
332 336 333 330 335 341 340 338 339 338 336 336 337 341 343 340 340 344 344 344 345 344 343 343 342 343 346 347 343 342 343 346 349 350 352 352 349 348 348 346 345 346 347 347 346 343 341 344 347 349 351 354 354 354 354 355 355 355 355 357 358 358 359 359 359 358 357 358 358 357 356 354 352 352 353 353 352 352 352 351 350 350 350 350 351 352 353
335 335 333 334 335 335 338 340 337 335 336 335 334 339 343 340 338 342 343 343 345 344 343 343 342 342 347 348 344 340 340 343 346 349 349 349 348 347 345 344 345 346 346 347 347 346 344 344 348 349 350 352 354 354 354 354 355 356 355 357 358 358 359 359 359 359 358 358 359 357 355 354 353 353 353 353 352 351 351 349 346 344 345 345 347 350 352
339 340 337 337 334 334 339 342 337 332 333 333 332 336 342 341 337 340 342 343 344 344 343 344 343 344 348 349 345 341 339 341 345 348 346 344 346 346 343 345 347 346 345 346 348 349 348 348 348 349 351 352 351 353 354 354 355 356 357 358 359 358 359 359 359 358 358 359 358 356 354 354 353 353 352 351 351 350 347 345 343 342 342 342 343 346 349
338 338 335 335 335 338 341 339 334 332 331 330 329 333 340 340 335 337 341 342 344 344 344 345 345 345 348 348 344 341 340 340 343 348 348 343 343 344 344 345 347 344 343 343 345 347 349 349 349 348 349 351 350 352 355 355 356 358 358 359 359 359 359 359 359 359 358 358 357 354 354 354 353 352 352 350 348 347 344 343 343 341 341 341 342 343 345
337 338 336 337 340 342 340 335 334 333 330 332 336 339 341 340 336 337 339 341 343 343 342 344 345 345 346 346 343 340 340 339 339 344 347 345 342 343 345 345 345 343 342 342 344 345 346 348 349 348 348 349 349 351 354 355 357 359 359 359 359 359 359 358 357 358 357 356 354 353 353 353 351 352 351 347 344 343 343 342 342 341 340 340 341 342 343
338 337 334 335 340 341 337 334 334 332 333 341 344 343 343 341 337 338 339 340 342 342 341 342 343 343 343 343 341 340 340 339 337 338 341 343 343 342 345 346 343 342 343 343 343 343 343 345 345 345 347 348 349 351 352 355 359 359 359 359 359 358 358 357 356 356 355 354 353 353 353 352 352 351 348 345 343 343 343 342 341 342 342 341 340 342 343
337 335 335 339 341 338 332 333 335 335 339 345 345 343 343 340 337 339 341 340 340 341 341 341 341 341 340 340 340 339 338 339 340 338 338 342 343 342 343 343 342 343 344 344 343 342 342 343 345 345 343 343 346 348 348 353 358 360 359 359 358 357 356 356 355 355 354 354 353 353 353 352 351 348 345 344 344 342 341 342 342 342 342 342 342 342 341
338 340 343 345 343 337 332 334 337 337 338 341 342 340 339 337 336 337 339 337 337 338 339 339 340 339 338 338 338 336 335 337 339 338 338 340 342 343 342 341 341 342 344 344 343 343 342 342 345 347 344 341 342 345 345 348 353 357 359 357 356 356 355 354 355 355 353 353 353 351 351 350 348 346 345 344 343 341 341 341 342 341 341 341 341 340 340
336 340 344 346 343 337 332 333 334 334 334 335 335 334 334 334 334 335 335 334 335 337 338 338 337 337 338 339 337 335 335 335 337 339 338 338 340 343 343 341 340 340 342 342 341 341 342 342 342 344 344 342 341 343 347 348 347 351 357 357 356 355 354 353 354 354 353 352 351 349 349 348 346 345 344 343 342 341 340 340 341 341 341 340 340 339 338
336 339 344 348 343 336 333 333 332 333 334 334 332 332 333 333 332 332 332 332 333 334 335 335 335 336 338 338 336 335 334 334 335 338 339 339 340 341 341 341 340 339 340 340 339 339 341 343 342 342 343 343 341 342 347 348 346 349 355 357 355 354 353 352 352 353 353 352 351 350 349 347 346 345 343 343 342 340 340 339 339 340 341 340 340 340 339
335 336 340 342 339 334 334 335 334 332 333 333 332 332 333 333 333 332 332 332 332 333 333 335 335 335 336 335 335 334 334 334 333 333 335 339 341 340 339 340 339 338 338 340 339 338 338 340 342 342 344 345 343 342 344 345 346 350 354 354 353 352 352 351 351 352 352 352 350 350 348 347 346 344 343 342 341 340 340 339 338 339 341 340 339 340 340
335 338 340 339 335 333 334 335 334 332 332 332 332 332 332 332 333 333 332 332 332 333 333 334 335 334 334 335 335 335 335 336 333 330 333 339 341 339 339 339 338 337 337 340 340 339 338 338 338 340 343 344 343 343 344 342 342 349 353 352 350 350 349 349 350 351 351 350 348 347 346 345 344 344 342 342 341 340 339 338 338 339 340 340 339 339 339
339 343 341 337 335 335 335 334 332 333 334 333 332 331 330 331 333 332 330 330 332 333 333 333 334 335 334 335 336 335 335 336 332 329 331 337 340 340 339 340 339 338 338 339 340 341 340 339 338 339 342 343 342 343 342 338 338 346 351 350 350 350 349 348 349 350 349 348 347 346 345 345 343 343 342 341 340 340 338 337 338 338 339 339 338 337 338
340 340 337 337 338 339 338 334 331 333 332 331 331 331 330 331 332 330 329 329 330 331 331 332 333 335 335 335 335 335 335 335 332 329 329 333 338 340 339 340 341 341 340 340 340 341 341 342 342 341 340 341 342 342 341 339 339 345 350 351 350 350 349 349 349 349 348 347 347 345 345 344 343 343 342 341 340 339 337 336 337 337 337 338 338 337 338
340 339 337 336 335 336 337 333 331 331 330 330 331 332 331 330 330 330 330 329 328 328 329 330 332 335 335 334 332 333 334 332 330 329 329 330 334 338 340 341 343 343 341 341 340 341 341 341 342 342 342 341 341 340 340 341 343 346 350 352 350 349 350 349 348 348 347 346 346 346 344 344 343 342 341 340 339 339 338 337 337 337 338 338 338 338 339
340 339 338 334 333 335 336 334 332 331 331 332 332 331 330 330 330 330 331 330 329 329 328 327 330 333 334 332 331 332 332 329 328 329 329 328 330 335 339 341 342 342 342 341 340 340 340 340 341 341 341 339 338 337 337 339 342 345 349 351 351 350 350 349 348 348 347 347 347 346 344 344 343 342 341 340 339 339 339 339 338 338 338 339 339 339 339
337 336 336 334 333 335 334 333 333 331 330 331 332 330 330 330 329 329 330 331 331 331 330 328 328 330 330 329 330 331 330 328 328 329 329 328 331 335 337 338 338 339 341 341 341 341 339 339 341 341 340 338 337 337 339 340 342 343 345 348 351 351 350 349 349 348 347 347 347 346 344 344 342 341 340 340 339 339 339 339 339 339 339 339 339 338 339
333 334 335 333 332 334 334 333 332 330 328 329 330 330 330 329 329 329 330 330 329 329 330 329 328 328 328 328 328 329 328 328 328 328 330 331 332 334 337 337 336 337 339 340 341 342 342 341 340 340 341 341 340 340 342 344 345 344 343 345 348 350 350 350 349 348 348 348 347 346 344 342 341 340 339 339 339 338 337 337 337 337 337 337 336 336 337
333 334 335 333 333 334 334 333 331 329 328 328 329 329 328 329 330 330 329 329 328 328 328 328 328 328 329 328 328 329 328 329 329 330 330 331 330 331 334 334 334 336 338 340 340 341 341 341 339 337 337 339 339 339 341 344 345 345 344 345 346 348 349 349 348 347 347 347 346 345 345 342 341 339 339 339 338 338 337 335 335 335 335 335 334 335 335
336 335 332 331 333 333 332 332 332 329 327 327 328 328 328 328 329 329 329 328 329 328 328 328 328 329 329 329 330 330 330 330 331 331 331 331 331 331 332 333 333 336 338 339 339 339 339 340 341 339 335 334 334 334 335 339 343 343 342 343 345 346 347 348 348 347 346 345 344 344 344 344 342 340 339 338 337 337 337 336 336 335 335 334 334 334 334
337 335 330 330 332 332 331 330 328 327 327 328 328 328 328 328 329 328 329 329 329 329 329 329 329 329 329 330 330 331 330 331 331 331 332 332 332 332 332 333 336 338 338 338 338 338 338 339 340 341 339 336 335 334 333 335 340 343 342 341 343 345 347 347 347 347 347 346 345 345 344 344 344 343 341 338 337 337 337 337 337 337 335 334 333 332 332
337 334 331 330 329 328 329 329 328 329 329 328 328 328 329 329 329 329 329 328 329 329 329 329 329 329 329 330 331 331 331 331 331 332 333 333 332 333 333 333 335 338 338 339 339 339 339 339 339 340 340 338 339 339 336 334 337 341 342 341 341 342 344 345 346 346 346 346 347 347 346 345 345 344 342 339 338 338 337 336 336 336 335 334 334 332 331
336 334 333 332 331 330 331 331 331 332 331 329 329 330 329 328 330 330 329 328 328 329 329 328 329 330 330 330 331 331 331 332 332 332 333 333 333 334 333 333 335 339 341 341 339 338 338 339 339 340 339 338 338 340 339 338 336 337 339 341 342 342 342 342 343 343 345 345 345 346 347 346 346 345 343 341 340 338 338 339 339 338 337 336 335 333 333
335 334 334 335 335 334 333 333 332 332 331 330 331 331 330 329 330 329 329 328 328 329 329 329 329 330 330 330 331 331 332 333 333 332 333 333 333 334 334 334 336 339 341 341 338 336 335 337 338 338 338 338 338 338 340 341 339 337 337 340 344 345 344 344 343 344 344 346 347 347 347 347 347 346 345 344 342 340 340 340 340 339 337 337 336 336 335
334 333 333 334 334 333 332 332 331 331 331 331 332 331 330 330 330 329 328 328 328 328 329 329 329 330 330 330 330 331 331 332 332 332 333 333 333 333 334 334 335 336 338 339 338 338 336 336 336 336 337 337 338 339 340 341 342 341 340 339 341 343 344 345 346 346 346 347 348 348 348 348 348 347 346 344 343 342 341 341 341 339 338 337 337 337 336
333 334 333 332 332 332 332 331 329 330 332 332 331 330 329 328 328 328 327 327 328 328 328 329 329 330 330 330 330 331 331 331 332 331 332 333 333 333 334 334 335 336 337 337 339 339 339 338 336 336 335 336 338 339 340 340 341 342 342 342 342 342 342 344 346 347 348 348 349 349 349 349 349 349 347 346 345 343 342 342 341 340 339 338 338 338 337
330 332 332 331 331 331 331 331 330 332 333 331 329 329 329 328 328 327 328 328 329 329 329 329 330 330 330 330 331 331 331 331 332 331 331 332 333 333 333 333 334 335 336 336 337 338 338 339 338 337 336 335 336 338 339 339 340 341 342 343 343 343 342 342 343 345 347 348 348 349 349 349 349 349 348 347 346 343 342 340 339 339 339 338 339 338 338
326 327 327 327 326 326 327 329 330 332 334 332 330 329 329 328 328 328 329 330 329 329 329 330 330 329 330 330 331 331 331 331 331 331 331 331 332 332 333 333 334 334 334 334 334 334 335 337 338 340 339 338 338 339 339 339 339 341 342 343 342 342 342 342 342 343 345 346 346 348 348 348 349 348 349 348 345 341 340 339 338 338 338 338 338 339 339
326 327 326 324 324 325 325 325 327 329 331 331 330 329 329 329 329 329 330 330 329 329 329 330 330 330 329 329 330 330 330 331 331 331 331 331 332 332 333 333 334 334 335 334 333 332 332 333 336 338 340 340 340 340 340 339 340 340 341 342 342 342 342 342 343 343 343 344 345 346 346 346 347 347 348 348 346 341 340 340 339 339 339 340 340 339 339
325 326 326 324 324 326 325 324 326 328 328 329 329 329 328 328 329 330 330 330 329 329 329 330 329 329 329 329 330 330 330 331 332 331 332 332 332 332 332 332 332 333 334 334 334 333 334 334 335 336 338 339 338 339 338 339 339 339 339 340 341 341 341 341 342 342 342 343 344 345 345 346 347 347 347 348 346 344 343 343 342 342 342 342 341 340 340
325 325 326 325 325 325 325 325 326 328 328 329 329 328 328 329 330 331 331 330 330 329 329 329 329 329 329 330 330 330 330 330 331 331 332 332 332 332 331 331 332 333 333 334 335 335 336 336 337 337 337 338 336 335 335 336 336 337 338 338 339 340 341 340 341 341 341 341 342 344 345 345 346 346 346 346 346 346 346 345 345 344 344 344 342 341 340
325 325 325 325 325 325 325 326 327 327 328 329 328 328 328 330 330 330 330 330 329 329 329 329 329 329 330 330 330 329 329 329 330 331 331 331 332 332 332 332 332 332 332 333 333 334 335 336 337 337 336 336 335 334 334 334 335 337 338 339 340 340 340 340 339 339 339 339 339 341 344 345 345 346 346 346 345 345 345 346 345 345 345 344 343 341 339
324 324 324 325 325 325 325 326 326 327 329 329 328 328 329 330 329 330 330 329 329 329 329 328 329 329 330 330 330 330 330 330 330 330 331 331 332 332 332 332 332 332 332 333 333 334 335 336 337 337 337 337 336 336 336 336 336 337 338 339 339 340 340 339 339 339 339 339 338 339 341 343 344 345 345 345 343 342 343 344 345 344 344 344 343 341 339
323 324 324 324 325 326 326 326 326 327 329 329 328 329 329 330 330 330 330 329 328 328 329 328 329 329 331 330 330 330 330 330 330 330 330 331 331 330 330 330 331 331 332 333 334 335 336 336 337 337 338 338 337 337 338 338 338 338 337 338 338 338 338 339 339 339 339 339 338 338 339 340 342 344 345 345 344 343 343 344 344 344 344 344 344 342 340
324 324 325 325 325 326 326 326 326 327 328 329 329 330 331 331 331 331 330 329 328 328 328 329 329 329 330 330 329 329 330 330 329 330 330 330 330 330 330 330 330 331 332 334 335 335 336 336 336 337 336 337 337 337 338 338 338 338 337 338 337 337 337 337 338 338 339 339 339 338 339 339 341 342 343 343 343 343 343 343 343 343 343 344 343 343 341
324 325 325 325 325 326 326 326 327 327 328 330 331 332 333 332 332 331 330 329 328 328 329 329 329 329 330 330 329 329 329 329 329 329 330 330 331 331 330 330 331 332 333 334 334 334 335 336 336 336 336 336 337 337 336 337 336 336 336 336 336 336 337 337 338 338 338 338 338 339 339 339 340 341 341 341 342 342 342 342 342 342 342 342 342 341 340
325 325 326 325 326 326 326 326 327 327 328 330 332 334 333 333 332 332 331 330 329 329 329 329 329 330 330 329 329 328 329 330 330 330 330 331 331 331 330 330 330 331 332 333 333 333 333 334 335 335 335 335 334 335 334 334 334 334 334 334 334 334 335 336 337 338 338 338 338 338 338 338 338 338 338 339 339 340 340 340 340 339 339 339 339 339 338
325 325 325 325 326 326 326 327 327 326 328 331 334 334 333 333 332 331 331 331 331 331 330 329 330 330 329 328 329 328 328 329 329 329 330 330 331 330 330 330 331 331 332 332 332 331 332 333 333 333 333 333 333 334 334 334 334 334 335 335 335 335 335 335 336 338 339 339 338 337 337 337 337 337 337 337 337 338 338 338 338 337 337 337 338 337 337
325 325 325 326 326 326 326 327 327 327 330 333 333 333 333 333 332 330 329 329 330 331 330 329 329 329 328 328 328 328 327 328 328 328 329 330 330 330 330 330 331 331 332 332 332 332 332 332 332 331 331 332 332 333 333 332 332 333 334 335 336 337 337 336 337 337 338 338 338 337 336 336 337 337 336 337 336 336 336 336 337 336 337 338 338 338 337
325 325 325 326 326 326 326 326 326 328 331 332 332 333 334 333 331 330 329 328 330 331 330 328 328 328 328 327 327 327 327 328 329 329 330 329 329 329 329 329 330 330 330 331 331 331 330 330 330 330 330 331 331 331 331 332 332 333 333 335 336 336 337 337 337 337 337 337 337 336 336 336 336 336 336 336 336 336 336 336 337 337 337 338 338 337 336
325 326 325 325 326 326 326 327 327 329 331 332 332 334 334 332 331 330 329 329 329 330 330 329 328 328 328 328 328 328 329 329 329 330 329 328 327 327 327 328 328 329 329 330 330 330 329 329 329 329 329 330 330 330 330 331 331 331 332 334 335 336 336 336 336 336 336 336 335 336 336 336 336 336 336 335 335 336 336 337 337 337 337 337 336 335 334
325 326 326 325 326 326 326 326 327 329 331 331 332 334 333 333 332 330 329 329 329 330 330 329 329 329 329 329 329 329 328 328 328 328 328 327 326 326 326 326 327 328 328 328 328 329 329 329 329 328 329 329 330 330 330 330 330 330 330 331 332 333 333 334 335 335 334 335 335 335 334 334 334 335 335 335 335 336 337 337 336 336 335 335 334 333 333
325 325 326 326 326 326 325 326 328 330 332 332 332 332 333 333 332 331 329 329 330 330 330 330 329 329 329 328 328 328 327 326 326 326 326 326 325 325 325 326 326 327 327 327 327 327 327 327 327 328 328 328 328 329 329 329 329 329 329 329 329 329 330 330 331 331 331 331 331 331 330 330 331 331 332 332 332 333 333 333 332 332 332 332 331 331 330
325 325 326 326 325 325 327 328 330 331 332 332 331 331 331 333 332 331 330 329 329 329 330 329 329 329 328 327 326 326 325 325 325 325 325 325 324 324 324 325 325 325 326 326 326 326 325 326 326 327 327 327 327 328 328 328 328 328 328 328 328 328 328 328 328 328 328 328 328 327 327 328 328 328 328 328 329 329 329 329 329 329 329 329 329 329 329
325 326 326 325 325 326 328 330 331 331 331 331 331 331 332 332 332 332 330 328 328 328 329 329 328 327 327 326 325 325 324 324 324 324 324 324 324 324 323 324 324 324 324 325 324 324 324 324 324 325 325 325 326 326 326 327 327 326 327 327 327 327 327 327 326 326 326 326 326 326 326 327 327 327 327 327 327 327 327 327 327 328 328 327 327 328 328
Wind_Speed
4 5 7 8 8 8 10 13 14 14 15 13 10 8 4 3 5 0 2 6 7 4 6 8 7 7 8 9 9 7 7 7 7 6 6 6 3 3 1 2 1 2 2 0 1 1 5 9 10 12 14 16 18 19 21 23 24 25 25 25 25 25 24 25 26 27 27 25 24 23 24 25 25 25 22 18 17 19 22 23 23 22 21 20 20 18 18
7 8 9 9 9 9 11 14 15 13 14 14 13 12 11 11 11 5 5 10 9 5 5 6 6 6 6 8 8 8 9 7 7 8 8 8 5 1 3 5 4 3 2 1 2 3 4 8 11 13 15 16 17 18 19 21 23 24 24 24 23 23 24 25 25 24 23 22 22 22 21 21 20 19 16 15 16 19 22 22 22 21 20 19 18 17 17
6 6 7 8 6 9 12 15 16 14 13 14 14 13 12 10 8 6 8 10 8 6 6 6 6 6 9 11 11 10 8 6 6 7 8 10 9 6 4 6 6 5 4 3 3 4 4 6 9 12 15 15 15 17 18 19 21 22 22 22 22 23 24 24 22 21 20 20 20 20 18 16 16 16 16 17 19 20 20 20 19 19 17 16 16 15 15
4 5 6 7 4 8 12 15 16 14 12 11 10 10 11 9 5 6 10 9 5 6 8 7 8 9 12 12 10 8 6 6 6 7 9 10 11 10 7 5 5 3 3 1 2 6 6 5 6 8 11 13 14 15 17 19 19 20 21 21 21 21 21 20 18 17 17 17 17 17 17 16 16 16 18 20 20 19 18 18 17 16 14 13 13 13 12
4 5 5 6 3 5 7 9 12 12 10 9 9 10 13 12 8 6 7 4 5 7 8 8 9 10 10 9 8 7 6 6 5 6 9 10 10 12 9 4 6 8 8 6 4 9 10 6 3 5 8 11 14 16 17 18 18 18 19 19 19 19 18 17 16 15 15 15 16 18 20 20 17 16 18 18 17 16 16 15 14 14 12 11 12 11 10
3 6 5 5 5 3 2 4 7 9 9 10 9 8 11 12 9 5 4 2 5 7 8 8 8 9 8 6 5 5 5 5 6 6 8 9 10 13 10 5 5 5 7 7 4 10 14 11 6 2 8 10 11 14 16 16 17 18 18 18 17 17 16 16 16 16 16 17 18 19 20 20 17 15 15 14 13 12 12 11 12 12 11 11 11 10 10
1 3 5 6 3 1 2 2 4 5 4 5 6 5 7 10 9 7 6 5 7 7 7 7 6 5 5 4 4 5 5 3 4 6 7 8 9 12 12 9 8 8 10 9 6 5 11 13 12 5 4 9 11 13 15 16 17 18 18 18 18 19 18 18 18 18 19 19 18 18 18 17 16 14 14 12 10 9 8 8 8 9 9 10 10 10 10
0 2 4 2 2 2 1 1 3 6 4 5 6 3 4 8 8 7 7 6 7 8 8 8 6 3 3 4 2 6 6 3 3 5 6 6 6 8 10 12 12 13 13 11 10 6 4 11 13 9 3 6 11 13 15 17 18 19 18 18 19 20 20 21 21 21 21 20 19 18 17 16 16 15 13 11 10 10 9 7 7 6 7 8 9 10 12
2 2 1 0 2 1 2 1 3 5 3 3 4 2 2 6 5 5 6 6 7 9 9 9 9 4 1 2 4 7 9 7 5 5 6 6 6 6 8 12 12 11 11 12 11 7 2 7 10 10 6 4 10 13 15 18 18 19 19 19 20 21 22 22 23 23 23 22 21 19 17 17 17 16 14 13 13 13 11 10 11 10 9 8 8 10 13
2 3 2 2 1 0 2 4 5 4 3 4 3 3 2 4 4 4 5 5 6 7 8 10 10 6 5 4 6 8 10 10 8 6 7 9 9 7 10 14 14 11 9 10 10 6 2 2 5 9 7 6 10 14 17 18 18 19 19 20 21 22 21 22 23 23 24 23 20 19 19 19 19 19 19 18 17 16 15 15 14 12 10 10 10 11 12
2 3 2 0 1 2 3 5 6 5 7 6 2 3 2 4 4 4 4 4 5 5 6 7 7 6 6 4 6 7 9 10 9 6 7 11 12 10 11 13 12 10 9 9 9 8 6 5 3 5 6 9 11 15 18 18 18 19 20 21 21 21 22 23 23 23 23 23 21 20 21 22 23 24 23 21 21 20 18 16 14 11 10 11 12 12 12
2 2 2 0 1 2 4 6 6 7 8 6 3 1 4 4 5 5 3 4 5 4 5 5 4 4 5 4 7 9 9 10 11 9 6 9 12 12 12 11 11 10 10 10 10 12 12 11 9 5 2 7 8 12 18 18 19 21 22 22 22 21 22 23 22 23 22 23 23 23 23 24 25 25 24 23 22 20 17 15 14 12 11 11 13 14 13
3 3 1 1 1 2 4 6 7 8 7 6 4 2 6 5 7 7 4 4 4 3 4 4 3 3 4 5 8 10 9 9 11 11 10 8 9 12 11 11 13 14 10 9 10 10 11 11 12 9 3 4 7 9 14 17 21 23 23 23 22 22 23 23 22 22 23 23 24 24 24 24 24 23 23 22 20 18 16 15 15 14 14 13 13 14 13
3 2 1 1 2 3 4 5 6 6 5 2 2 4 5 5 7 7 5 5 5 4 4 4 4 5 6 5 7 9 9 9 8 9 12 10 8 11 13 11 14 16 13 10 11 11 10 9 8 7 7 7 7 8 12 19 23 25 23 22 23 24 24 24 23 23 23 23 24 24 24 25 24 23 22 20 18 17 16 15 14 14 14 14 13 13 12
2 2 3 2 1 4 4 6 5 5 3 2 5 4 4 5 6 5 4 5 5 4 4 4 5 7 7 6 7 8 9 9 7 5 9 9 8 9 12 11 11 13 13 12 13 13 13 9 5 4 1 10 11 11 13 21 23 23 23 23 25 25 25 24 25 24 24 23 23 24 25 25 25 23 21 20 18 16 15 15 14 13 13 13 13 13 12
1 1 0 1 4 5 3 3 0 2 2 3 3 4 5 5 5 5 5 5 5 5 4 5 6 7 7 6 7 8 8 9 8 2 4 6 7 7 10 11 9 10 11 10 9 11 13 10 6 8 6 9 15 17 19 22 25 23 24 25 25 25 26 26 25 25 25 23 23 24 24 23 23 22 20 19 17 15 15 14 13 12 12 12 12 12 11
1 3 4 4 4 4 3 1 3 3 4 4 4 4 5 5 4 5 5 6 7 6 5 5 5 6 7 6 7 7 7 8 9 6 3 3 4 5 11 13 12 12 12 11 7 6 12 12 8 5 7 13 20 21 20 23 26 25 25 26 26 26 25 25 25 25 25 25 24 24 24 23 22 22 20 18 17 16 14 14 13 13 12 11 11 11 11
2 1 2 1 2 4 5 3 2 3 3 4 5 4 5 5 5 5 5 6 7 7 5 5 5 5 7 7 7 7 7 7 8 10 8 2 8 4 10 11 12 16 16 14 11 4 8 10 7 2 5 11 17 19 17 20 25 27 27 25 26 26 24 23 24 24 25 26 26 25 25 24 23 22 21 19 18 17 15 15 14 13 12 12 11 11 12
1 1 3 2 3 5 6 3 4 5 5 5 5 5 6 7 6 6 7 7 7 6 5 5 6 6 7 7 7 7 6 6 7 10 10 2 8 4 7 8 9 13 15 14 13 8 2 5 4 4 7 8 12 16 18 21 22 25 30 28 25 25 23 21 21 22 23 25 25 25 26 25 24 23 22 21 20 18 17 16 15 13 12 12 12 12 12
1 3 5 4 4 5 4 3 5 7 6 7 7 6 7 7 7 7 8 8 6 5 5 6 6 7 7 7 7 7 6 6 6 8 12 8 5 9 1 7 6 7 11 13 14 13 6 1 3 3 4 5 10 14 19 23 23 21 28 31 27 25 24 22 20 20 21 23 23 24 25 25 24 24 23 22 20 19 17 17 17 16 14 13 13 12 12
2 3 4 5 6 6 5 5 6 7 6 8 9 8 7 7 7 8 9 9 8 7 7 6 6 6 7 6 7 8 7 6 7 9 13 13 4 9 6 5 5 4 7 13 15 14 11 5 1 1 1 1 4 11 17 23 25 23 26 30 28 26 25 23 22 21 20 20 22 23 23 22 22 22 22 21 19 17 15 15 16 16 15 14 13 13 12
2 3 3 2 3 4 6 7 8 9 8 8 8 8 8 9 9 9 10 11 11 11 10 8 6 6 7 7 8 8 7 7 10 13 14 15 11 6 7 5 6 6 8 13 15 13 11 9 5 2 3 4 7 11 15 18 21 19 21 25 26 26 25 24 24 23 21 20 21 21 21 21 20 20 20 20 19 17 16 15 14 14 14 14 13 12 12
4 5 5 3 2 3 6 7 8 8 7 7 8 9 10 10 10 10 9 10 11 11 11 11 9 7 8 10 10 8 8 12 15 17 17 17 15 10 7 7 7 8 9 13 16 16 14 11 7 4 5 5 7 10 13 15 17 14 12 16 19 22 23 23 23 23 22 21 21 21 21 22 21 20 19 18 18 18 17 16 16 15 14 13 13 13 13
3 5 5 4 3 4 6 7 8 7 7 7 8 10 10 10 11 11 10 10 11 10 10 12 13 11 11 13 12 8 9 15 18 17 18 18 15 11 9 7 7 8 10 12 16 17 17 15 11 7 6 6 6 6 8 12 15 14 11 10 11 14 17 20 21 23 23 22 21 21 22 23 22 21 19 17 17 17 17 17 18 17 16 15 14 14 13
2 5 5 3 4 6 7 6 6 6 8 9 8 9 11 12 13 13 11 10 12 12 10 10 14 15 14 14 14 12 12 15 18 18 17 16 13 10 11 10 9 9 10 12 16 17 17 17 16 13 10 10 10 9 8 10 12 13 10 9 9 11 12 14 17 19 22 23 22 21 23 25 23 22 21 20 18 17 16 16 16 16 16 16 15 14 13
3 4 4 4 5 5 5 5 5 6 10 11 8 9 13 16 16 16 15 13 15 15 13 11 13 15 14 13 14 14 14 16 19 19 16 14 12 10 11 14 14 11 10 10 13 16 16 16 16 16 15 15 15 15 13 12 12 12 10 7 8 11 11 11 12 13 15 17 17 17 21 25 26 24 23 22 21 19 18 17 16 16 16 16 14 13 12
3 4 4 5 6 5 4 5 6 8 12 13 11 11 16 18 18 17 17 16 16 17 16 15 14 14 14 13 13 13 13 15 16 16 14 12 10 10 12 15 15 13 11 11 12 14 16 16 14 15 16 15 15 16 16 14 14 14 13 11 9 10 12 13 12 12 12 11 10 10 13 19 24 25 24 23 21 21 20 19 18 18 18 16 15 13 12
4 5 3 2 4 6 5 7 10 11 12 13 13 14 15 16 14 12 12 13 14 15 16 17 16 13 12 13 12 10 11 13 13 13 13 13 12 11 13 14 14 15 14 12 13 14 15 16 16 16 16 15 14 14 14 14 14 14 14 13 12 11 11 12 14 14 14 13 12 10 9 11 16 22 24 23 21 22 21 20 19 18 18 17 16 15 14
4 5 4 4 6 6 7 8 9 9 10 13 14 14 12 11 10 8 9 10 11 11 12 15 15 13 12 13 11 9 8 9 10 12 14 16 15 13 11 11 12 14 15 14 14 15 15 17 18 19 19 18 15 13 12 12 13 14 13 12 12 12 12 12 12 13 14 14 15 15 13 10 10 15 20 22 21 21 21 20 19 18 17 17 17 17 17
5 5 5 5 6 6 6 7 7 7 9 10 10 10 9 9 8 8 9 10 9 9 11 13 14 14 13 13 12 10 10 9 10 13 16 17 17 15 12 10 10 11 14 15 16 16 16 17 19 20 21 19 17 15 12 11 12 14 13 12 12 12 12 12 12 12 13 13 13 14 15 13 11 12 16 19 21 21 21 20 20 19 18 17 18 18 19
6 6 6 6 6 5 6 6 6 7 8 7 8 9 9 9 9 9 10 10 8 9 12 14 14 13 14 14 13 13 12 12 12 14 17 17 17 16 14 12 9 10 13 16 18 18 18 18 19 21 21 19 18 17 14 11 11 13 14 14 13 12 11 12 13 14 14 14 13 13 14 15 15 14 15 18 21 22 22 21 21 20 20 20 20 20 20
5 7 7 6 6 6 6 6 6 7 8 8 8 9 8 8 9 9 9 9 10 12 13 13 12 14 17 17 16 15 14 14 15 15 15 17 17 16 14 14 13 13 14 17 18 19 20 20 20 20 20 18 18 18 16 13 12 12 13 15 15 14 13 13 13 14 15 15 14 14 14 15 16 16 17 19 22 24 25 24 22 21 21 22 22 22 21
5 6 7 7 6 6 7 8 8 8 8 8 8 9 9 9 9 9 10 11 13 14 14 13 14 18 19 19 17 16 14 14 13 13 13 14 15 15 14 13 14 13 13 14 16 18 20 22 21 21 19 18 16 15 14 13 13 13 13 14 15 16 16 15 14 14 15 16 16 16 16 16 17 17 18 20 23 25 24 23 22 22 22 23 24 24 22
4 5 6 6 6 7 8 8 8 7 7 8 9 10 11 12 11 11 13 14 12 12 15 17 18 20 20 18 17 15 13 10 8 9 12 13 13 14 14 13 13 13 13 13 14 15 17 20 20 20 20 19 18 16 15 14 14 14 14 14 15 16 16 16 16 15 15 16 18 19 18 18 18 18 19 21 22 21 19 17 18 20 21 23 25 25 24
7 7 8 9 10 10 10 9 8 7 6 7 9 10 12 14 15 14 15 15 14 14 18 20 20 19 18 17 15 13 11 9 9 11 15 16 16 16 15 14 14 14 14 14 15 15 15 16 16 17 18 19 18 18 17 15 15 14 14 15 15 15 15 15 16 17 16 17 18 19 20 21 21 20 20 21 21 21 20 21 22 22 22 23 25 26 25
9 8 8 10 13 14 13 12 11 9 8 8 9 11 13 16 16 16 17 18 18 18 19 19 19 18 16 14 13 12 12 13 14 15 17 18 19 18 16 15 14 14 13 14 16 15 15 15 15 14 14 15 15 15 15 15 14 14 14 15 15 16 15 15 15 15 16 16 17 19 19 20 21 21 21 21 21 21 22 24 25 26 26 26 25 24 24
12 10 9 11 14 15 15 15 15 13 11 12 13 13 14 16 18 18 18 19 19 19 18 17 17 16 15 15 15 15 15 15 16 16 17 19 19 18 16 16 15 13 11 12 14 13 13 14 14 13 12 12 13 13 14 15 15 15 15 15 16 16 17 16 15 14 14 15 15 17 19 19 20 20 21 21 21 21 22 23 25 26 26 24 23 22 23
14 14 13 14 16 16 16 18 18 16 14 13 15 16 16 17 19 19 19 19 19 19 18 17 17 16 17 17 15 14 16 17 17 16 17 18 17 15 13 13 14 13 12 14 15 13 11 10 10 10 11 12 12 13 13 13 13 13 14 15 16 17 17 17 16 16 15 14 14 15 17 18 19 20 20 21 21 22 22 23 24 24 23 22 22 23 24
12 13 15 16 16 17 17 18 19 19 16 13 15 17 18 18 19 19 18 19 20 19 18 18 18 16 15 14 13 13 16 17 16 16 16 17 16 15 14 15 15 15 15 17 17 16 14 12 11 12 13 14 13 12 11 10 10 10 10 12 14 16 17 17 17 17 17 16 14 14 15 17 19 20 21 22 22 21 21 22 22 22 21 21 20 21 24
9 12 15 16 16 16 16 16 18 20 20 16 16 17 18 18 18 18 17 18 20 20 19 18 17 14 13 13 13 14 16 16 15 14 14 15 15 13 13 15 16 14 12 13 14 13 13 13 12 12 12 11 9 8 7 7 8 9 8 8 10 11 13 15 16 16 17 17 15 14 15 16 19 20 21 21 20 20 21 22 21 20 21 21 20 20 22
11 14 16 15 15 15 16 16 18 20 21 19 18 18 18 17 17 16 16 18 20 19 18 17 16 14 13 13 14 14 15 15 15 14 13 13 13 10 8 11 14 12 10 11 11 11 10 10 9 9 9 8 7 6 5 6 7 8 8 8 8 8 9 11 12 13 15 17 17 17 17 17 19 20 21 21 22 23 23 23 21 19 20 21 21 21 21
13 15 15 14 14 15 16 17 18 18 19 19 19 19 18 16 15 15 16 18 18 18 17 17 17 16 15 15 15 15 14 14 13 13 12 11 11 9 8 11 14 13 10 10 10 9 8 8 7 7 8 8 8 7 7 7 8 8 9 10 11 11 11 12 12 13 13 14 16 18 18 19 19 21 21 20 21 21 21 20 18 18 19 20 22 22 21
14 15 13 13 15 16 17 19 18 17 17 18 19 17 15 14 14 14 16 17 17 17 17 17 18 18 17 16 15 14 14 14 13 13 13 11 8 6 7 11 15 14 11 9 9 8 7 6 6 7 8 9 10 10 10 10 11 11 11 12 13 13 14 14 14 14 15 15 16 17 17 16 15 16 16 16 17 18 18 19 20 21 22 21 20 20 20
15 15 14 15 17 18 18 18 17 16 16 18 17 15 13 13 14 15 16 16 17 17 16 16 17 17 17 16 15 13 13 13 13 13 12 11 9 8 9 12 13 12 10 9 10 10 8 6 6 8 10 11 11 12 12 12 12 12 12 12 13 13 14 15 14 14 14 14 13 13 13 12 12 12 13 16 18 20 22 23 25 26 24 19 15 15 18
16 17 18 18 19 18 18 18 18 18 18 17 15 12 11 12 15 16 16 16 17 16 15 16 16 16 16 16 16 14 12 12 13 12 10 7 7 9 12 12 10 8 8 8 8 8 6 5 6 8 9 9 9 10 10 11 11 12 12 11 11 11 12 13 13 14 14 13 12 11 10 11 12 14 16 18 19 20 22 23 25 24 21 16 14 16 19
17 19 20 19 19 19 20 20 21 20 18 14 11 10 11 12 13 15 15 15 16 15 14 14 14 14 14 16 16 14 11 11 14 15 12 9 8 10 12 11 9 8 8 9 9 9 7 6 6 7 8 8 8 8 9 10 10 11 11 11 11 11 11 11 12 13 15 15 14 14 13 14 15 16 17 17 17 16 16 18 19 18 16 15 16 18 20
17 18 19 19 19 21 23 23 21 18 13 8 7 8 10 11 12 13 14 14 14 13 13 13 12 12 13 15 15 13 11 11 12 14 14 14 13 14 13 12 10 9 10 11 11 10 9 9 10 10 10 10 9 8 8 9 10 10 10 10 10 10 10 10 11 12 12 11 12 12 13 13 13 12 12 11 11 11 12 13 14 14 13 13 13 14 15
17 17 19 20 21 23 23 21 17 13 9 7 7 9 9 9 11 12 13 12 12 12 12 12 11 11 13 15 15 14 13 12 11 11 14 15 15 14 13 13 12 13 14 15 14 12 12 12 12 12 11 11 12 12 11 10 10 10 9 7 6 6 6 6 7 8 8 8 9 9 9 8 7 7 6 6 7 9 10 10 9 9 9 9 10 10 11
18 18 20 21 21 21 19 17 13 10 9 8 9 9 9 9 11 12 12 12 13 12 12 12 12 12 12 14 15 16 16 14 12 11 13 15 15 14 14 14 14 15 16 17 17 16 16 15 14 14 14 15 15 16 16 15 15 15 14 11 8 5 3 2 3 3 3 4 4 4 5 5 4 4 3 3 3 4 5 4 4 5 7 10 11 11 11
18 19 19 19 19 20 19 15 12 10 9 9 9 8 8 8 9 10 11 13 13 11 10 12 13 13 13 14 15 14 14 14 13 12 14 15 16 16 16 17 17 16 16 17 17 18 18 17 16 16 16 18 19 19 19 20 21 21 21 21 20 19 17 16 14 13 13 13 13 13 13 13 12 11 10 10 10 10 10 12 13 15 16 17 18 18 19
18 18 18 19 20 22 19 14 10 9 9 8 8 8 8 8 8 9 10 11 11 9 9 12 14 14 13 14 14 13 13 14 15 15 15 16 17 17 18 19 19 19 18 18 18 19 19 20 20 19 18 20 21 21 21 22 23 23 24 24 25 25 25 25 25 25 24 24 24 24 24 25 24 24 23 22 22 22 23 23 23 24 24 24 23 23 22
18 18 18 18 19 20 17 11 8 7 7 7 7 8 8 8 9 8 7 8 9 9 9 10 12 13 12 12 12 13 14 15 16 17 17 18 18 19 20 21 21 21 21 21 22 21 21 22 22 22 21 22 22 22 22 23 24 25 25 26 26 26 27 27 27 27 27 27 26 26 26 26 26 26 26 25 25 25 25 25 25 25 25 24 23 22 22
Wind_Direction
348 350 345 346 360 9 19 15 360 358 11 25 36 15 348 94 96 346 316 60 69 31 360 3 352 0 30 41 41 40 32 12 350 336 315 301 330 55 36 283 318 337 301 284 28 129 139 145 161 170 173 181 189 197 202 203 204 206 206 207 207 206 204 203 205 210 213 214 214 216 217 218 219 221 223 225 226 229 234 237 236 232 231 234 237 239 239
356 354 349 351 10 31 34 20 9 14 21 25 33 28 31 62 75 69 61 65 63 37 2 353 342 350 28 44 44 40 34 18 352 336 317 306 316 358 214 222 200 189 228 141 77 74 120 144 162 170 174 179 183 190 199 204 207 209 207 206 205 204 204 207 210 213 216 215 214 213 214 217 221 221 223 229 231 231 232 233 232 229 229 233 238 241 239
339 330 336 345 26 63 47 22 12 18 22 23 27 25 22 43 61 52 48 54 45 18 1 350 349 16 39 39 35 35 27 8 352 338 320 312 313 306 268 246 223 187 173 167 132 96 98 138 166 176 177 179 181 185 192 200 206 208 205 204 205 205 207 209 210 213 214 213 213 212 212 217 222 223 224 224 224 224 226 228 227 227 231 235 238 240 238
305 295 330 337 33 76 49 24 11 11 21 24 23 24 20 19 26 36 41 38 3 346 359 356 356 20 37 36 29 28 21 0 351 336 319 314 313 310 298 275 285 340 44 35 105 92 81 109 161 185 182 178 181 185 190 199 206 208 206 206 207 209 212 214 213 215 215 215 220 222 218 217 220 218 216 216 218 221 224 226 224 223 228 230 228 230 230
280 283 316 335 31 66 40 18 4 3 21 27 23 25 20 14 18 36 47 25 316 329 358 359 357 11 25 33 26 19 17 358 341 324 312 311 310 307 305 317 339 3 18 359 30 77 71 72 134 207 204 189 189 191 194 201 208 209 209 208 210 212 215 219 220 221 222 220 222 221 215 214 216 213 211 215 218 220 222 221 219 216 216 213 211 216 222
276 294 324 13 50 65 67 36 10 6 22 29 31 29 15 11 19 33 53 19 332 344 355 351 359 5 3 19 29 21 25 360 332 316 307 309 311 307 315 1 14 7 11 346 8 79 80 72 66 236 229 219 209 202 199 203 208 212 214 212 211 210 211 216 218 217 215 212 212 213 212 213 217 215 212 212 210 208 209 208 208 210 206 200 203 213 215
243 319 17 39 49 169 164 107 15 5 26 36 45 51 22 14 13 10 17 7 345 346 341 337 3 10 325 324 23 31 33 9 322 318 312 316 322 317 325 350 355 356 7 347 331 52 89 94 79 67 227 233 232 217 207 208 209 212 217 217 214 209 206 207 208 206 205 204 206 209 209 210 211 205 200 200 195 191 192 189 194 204 205 201 206 212 206
22 32 42 55 195 198 145 121 4 5 8 6 13 37 30 14 7 359 359 353 340 341 339 336 352 2 266 269 344 18 13 354 302 303 304 309 321 322 329 340 339 343 352 338 317 332 84 116 106 90 106 229 236 226 213 211 211 211 214 217 217 214 209 205 203 202 201 203 205 205 201 197 196 192 189 186 177 170 167 162 163 174 186 192 200 202 199
88 114 62 277 180 95 15 338 346 358 344 326 332 314 342 356 353 345 345 345 343 342 342 339 339 350 33 308 323 347 352 341 308 289 287 285 288 305 330 341 345 347 347 340 327 322 48 114 122 116 111 192 226 228 220 214 214 213 213 216 218 217 214 208 205 203 202 203 203 198 192 188 187 185 177 169 164 159 154 151 149 149 151 156 170 187 195
72 101 56 4 19 161 291 272 281 295 280 274 250 206 255 315 316 331 335 336 343 341 339 340 336 352 37 1 319 327 334 328 316 303 297 292 290 308 340 354 9 19 15 2 347 335 5 81 116 121 125 171 208 225 226 219 218 218 216 217 217 215 216 214 210 208 205 204 200 193 187 183 180 176 170 164 163 161 158 158 158 154 150 147 151 168 183
36 94 111 44 219 204 243 275 290 299 302 306 281 179 216 257 287 326 327 315 332 337 332 337 347 5 17 342 308 314 318 315 313 308 305 307 313 333 357 10 24 32 28 21 12 10 13 4 33 101 141 163 185 219 228 221 220 222 219 219 217 216 218 219 214 211 207 203 199 192 186 180 174 171 170 168 166 166 167 169 167 164 162 156 152 158 167
26 81 113 219 220 221 265 296 309 304 308 338 55 165 250 274 308 324 316 307 321 333 331 341 11 13 349 313 302 306 306 307 308 305 302 308 321 341 358 13 29 35 36 39 31 18 15 15 19 24 158 160 171 226 236 223 218 222 221 219 218 216 217 217 212 207 203 199 195 191 185 180 175 173 171 169 168 170 172 174 173 174 175 169 160 159 163
28 63 85 301 255 242 284 305 308 311 331 22 72 217 253 287 314 312 306 306 315 332 341 344 349 316 287 277 290 297 301 305 309 320 327 317 326 346 350 359 17 20 22 48 56 39 31 39 43 32 348 206 196 236 253 236 221 221 222 219 216 213 211 210 206 202 199 197 195 192 187 182 178 176 174 172 172 173 172 171 172 174 176 172 162 159 162
6 50 79 342 292 269 307 323 320 340 17 52 222 246 262 295 309 307 311 317 319 330 330 314 301 295 289 293 302 306 312 308 308 340 351 340 341 353 348 355 15 11 3 27 56 58 60 68 68 49 4 312 252 239 268 259 233 221 221 217 210 207 205 204 204 203 202 199 195 191 188 183 178 175 175 175 176 176 172 168 164 162 165 166 161 158 161
2 37 49 37 259 266 329 1 354 5 48 210 247 276 299 309 313 313 317 317 316 323 320 307 306 309 309 314 317 319 322 314 311 2 11 352 341 342 342 354 17 16 7 19 42 57 72 89 130 163 322 312 283 245 256 270 255 229 217 211 205 202 202 201 201 202 202 199 192 185 182 180 177 174 175 175 176 176 177 172 163 157 159 162 162 162 165
81 72 226 202 218 255 322 31 92 270 262 249 279 326 322 314 316 316 317 312 305 307 308 307 311 312 308 310 316 320 321 318 320 7 38 359 345 331 331 345 4 13 9 11 33 66 84 102 155 190 209 266 267 244 235 253 259 239 215 207 204 203 202 200 199 199 198 196 191 185 181 179 176 174 174 175 175 177 178 176 172 167 165 168 171 171 172
178 186 213 224 230 265 300 211 199 247 286 296 328 344 325 312 308 307 312 309 303 301 299 302 310 306 301 303 308 311 315 316 321 330 343 26 50 357 331 335 345 353 355 347 350 64 93 109 139 187 240 253 255 247 234 238 245 233 212 205 204 202 202 201 199 198 196 194 192 189 186 184 181 177 175 176 175 178 180 180 178 175 173 178 184 186 187
296 227 233 272 322 313 312 296 259 284 305 312 329 333 311 301 297 297 300 299 298 300 297 298 302 295 296 302 299 300 311 315 322 328 326 57 102 37 326 327 337 341 347 341 325 351 83 100 118 117 302 273 259 257 255 252 241 219 201 199 200 198 200 200 197 196 195 192 191 189 188 188 186 182 181 179 178 179 183 185 185 182 179 181 186 189 193
7 300 284 318 335 307 301 307 321 328 328 315 316 312 295 288 286 291 296 293 292 296 291 288 291 289 294 300 296 296 306 308 316 325 318 316 120 104 317 324 333 329 333 331 316 311 43 91 87 33 1 328 295 276 267 267 254 217 195 195 198 199 202 204 201 199 197 193 191 189 188 189 188 186 185 183 181 182 186 187 188 189 188 188 189 191 193
198 230 260 289 311 300 297 327 335 330 323 308 306 307 296 287 284 290 298 296 293 295 292 287 287 286 288 293 292 294 298 297 305 316 311 304 141 141 258 322 327 316 317 313 301 296 297 110 102 62 33 4 327 292 261 256 258 230 199 194 197 200 205 208 208 205 200 195 193 192 191 192 190 188 187 186 185 186 188 187 187 189 194 198 200 201 203
298 274 290 323 338 330 328 333 321 311 304 301 304 308 306 303 301 301 303 301 297 293 291 287 281 279 283 284 285 289 292 291 294 299 305 307 271 163 176 291 287 258 285 288 284 286 292 302 47 73 101 105 305 285 259 245 244 230 204 194 195 199 201 204 207 207 205 201 199 198 198 197 195 193 192 193 194 192 190 186 184 184 187 192 196 201 210
304 274 277 309 331 314 306 309 309 307 307 308 310 315 318 315 309 305 303 303 301 295 289 283 275 272 278 277 277 283 286 284 288 292 297 303 291 226 188 220 249 248 270 282 284 286 292 306 323 296 270 258 251 257 259 254 248 233 205 193 194 196 198 203 207 208 208 209 208 208 207 206 204 202 201 201 200 197 193 190 185 182 182 183 187 195 207
236 254 257 243 232 267 278 286 296 300 305 312 315 313 312 306 301 299 298 299 302 299 293 286 278 266 269 273 271 276 281 282 287 291 293 296 290 263 213 198 227 255 279 290 293 293 294 300 300 261 256 278 262 249 255 266 270 257 216 194 193 196 199 205 211 212 212 214 217 219 218 216 215 215 214 212 210 207 203 199 196 195 197 197 196 198 204
242 269 264 245 245 271 274 278 285 291 301 309 309 305 303 299 298 298 296 293 294 293 292 290 285 275 270 271 270 267 273 281 286 290 293 297 293 267 237 226 233 248 265 278 287 293 296 297 293 274 255 260 262 255 259 271 279 275 247 212 200 199 201 208 215 217 218 220 223 224 221 218 218 219 218 217 218 219 216 209 205 206 208 208 206 205 206
261 270 261 259 274 275 277 281 282 290 304 309 306 305 305 303 301 303 302 298 295 291 287 287 287 285 281 277 276 274 271 276 283 286 287 294 294 264 243 249 252 248 254 269 279 286 291 294 294 292 284 274 276 283 283 278 282 283 269 240 222 216 213 213 215 219 222 224 226 224 219 215 215 215 215 213 214 216 216 213 210 209 206 203 203 206 209
290 290 302 318 303 288 299 313 304 302 312 314 309 306 307 307 306 306 305 302 301 299 294 286 287 291 293 287 284 285 282 280 286 288 284 285 288 274 259 261 262 254 250 258 270 282 288 291 293 295 293 290 291 294 295 292 292 297 298 281 246 234 231 228 223 220 221 223 226 224 220 216 215 214 214 214 212 209 206 205 207 209 208 205 204 204 207
322 325 335 338 322 311 315 316 306 305 313 315 312 308 309 309 308 306 304 303 304 306 305 299 295 297 299 297 295 296 297 295 293 291 287 285 289 299 302 290 269 250 242 246 257 274 284 287 287 290 293 294 296 296 294 293 293 296 299 296 275 252 242 240 238 233 228 229 233 232 225 221 220 220 219 216 213 210 208 206 208 212 214 215 214 213 213
320 317 315 298 287 285 289 300 303 303 307 309 306 304 306 309 308 306 307 308 307 308 308 306 303 301 301 301 300 302 306 308 302 294 293 296 299 311 323 312 274 244 239 246 252 263 277 282 281 283 287 295 301 299 293 289 290 294 294 290 283 271 256 246 244 245 245 247 252 255 251 236 230 228 224 218 215 215 214 213 215 218 220 222 223 224 225
291 298 297 268 256 268 292 308 308 303 304 306 306 303 304 308 309 308 307 307 306 306 306 305 305 306 303 300 297 295 296 301 303 303 304 306 303 301 314 318 290 260 251 254 256 258 267 274 277 279 285 293 300 303 297 288 285 289 292 288 282 277 271 263 257 254 252 253 256 259 260 255 241 232 225 219 216 216 216 217 220 223 225 228 228 227 228
284 292 296 284 275 285 305 308 301 297 301 305 305 304 306 308 307 305 304 304 304 302 301 302 303 305 303 300 297 296 292 290 299 308 310 309 307 301 301 308 299 270 254 255 260 263 266 269 271 275 282 291 297 299 297 289 282 281 283 282 279 278 278 275 271 267 265 263 260 257 255 250 241 231 226 221 217 215 216 219 222 223 224 227 227 226 228
295 303 302 296 294 300 301 296 292 295 298 301 302 305 310 312 309 306 305 304 303 302 303 302 300 298 298 298 298 299 299 297 299 303 304 305 305 303 299 297 286 261 250 254 261 267 270 269 268 271 277 286 292 292 289 288 287 282 277 273 272 275 278 277 274 272 271 271 269 265 259 253 245 233 225 221 218 216 217 220 222 221 219 221 224 227 230
314 319 321 315 309 308 303 298 300 302 303 309 312 310 310 310 307 305 304 303 304 306 305 302 298 294 294 295 296 297 298 297 296 296 298 299 299 298 297 292 283 271 264 263 265 268 270 269 270 275 278 282 287 288 285 282 284 284 281 276 273 272 275 276 273 270 267 266 266 265 262 259 255 245 231 222 218 217 218 220 221 220 218 218 224 228 230
333 327 324 318 315 318 314 310 310 307 304 308 310 305 303 304 302 301 302 301 302 303 302 299 299 300 299 296 294 293 294 296 297 294 292 293 296 300 302 299 291 283 278 275 272 271 268 267 271 278 281 279 281 282 279 276 276 279 281 280 276 275 275 274 272 269 263 257 256 257 258 259 260 254 244 233 225 221 219 219 222 223 221 222 228 232 232
292 284 284 287 293 299 300 303 307 304 301 306 309 307 307 308 306 304 306 305 302 300 300 299 301 303 303 299 294 292 292 294 295 292 289 291 294 299 302 302 297 291 288 288 286 280 275 273 275 278 279 277 274 272 271 272 273 273 274 275 276 277 275 273 271 267 259 253 252 252 251 251 252 253 251 245 236 229 227 228 230 231 228 227 231 233 232
290 285 290 295 296 295 294 297 299 295 296 306 309 309 309 309 308 309 311 310 305 301 301 302 303 304 304 300 295 293 291 287 284 286 290 292 293 293 294 294 291 287 284 285 285 285 284 283 280 278 276 274 272 269 269 270 271 270 270 272 275 277 277 275 271 266 259 255 252 248 245 245 247 248 250 247 240 236 237 238 239 240 238 235 234 233 232
308 303 300 303 306 305 303 300 295 288 289 299 302 302 307 309 308 309 310 310 309 308 308 308 308 307 303 299 296 295 293 291 288 288 290 293 294 294 292 289 286 284 282 281 281 284 287 287 283 278 275 272 269 266 265 267 271 274 273 272 272 273 276 277 274 270 267 261 254 250 248 248 247 245 245 244 239 234 233 232 232 235 237 236 234 233 230
317 311 300 301 308 309 306 305 301 293 292 299 301 301 304 307 307 308 310 312 313 315 316 314 311 306 302 300 299 298 296 295 293 290 291 294 297 296 293 289 286 283 277 277 283 292 297 295 292 287 278 272 270 269 268 269 275 280 281 278 274 273 274 275 274 275 278 274 266 261 256 251 246 243 241 239 236 232 229 228 228 230 234 235 234 233 229
319 317 312 309 310 308 307 310 309 302 295 300 305 306 308 310 310 311 314 316 318 319 320 320 316 309 305 304 303 302 301 301 300 297 297 298 298 294 288 285 284 280 276 279 287 294 296 293 287 279 272 271 276 281 281 280 282 286 288 284 278 274 274 274 274 275 279 281 279 274 265 255 248 244 240 237 234 232 232 233 234 236 239 241 239 236 231
317 317 315 312 312 311 310 312 314 310 304 301 304 307 311 315 315 315 316 320 322 324 324 324 323 317 312 310 307 303 304 307 307 305 306 306 303 294 287 286 290 293 294 295 295 293 291 290 286 280 279 282 287 290 290 288 287 289 292 289 281 274 272 273 275 276 277 278 280 278 271 262 254 249 244 240 238 236 237 240 240 241 244 245 242 239 235
304 307 309 310 311 311 310 310 313 313 310 306 306 309 312 315 317 316 316 321 326 329 330 329 328 322 317 317 312 304 304 310 313 314 316 314 308 297 290 293 301 311 317 316 310 303 300 302 301 295 292 291 289 287 286 279 276 280 287 291 288 281 278 278 278 277 276 276 276 274 270 264 258 253 249 245 243 244 246 246 244 243 245 245 244 241 239
298 303 307 308 307 308 309 310 311 312 312 312 315 319 318 317 316 314 313 318 326 331 334 334 333 328 327 330 327 318 317 322 325 326 327 322 313 302 293 297 306 314 320 319 317 314 312 314 315 308 300 294 287 283 280 274 270 274 277 278 281 284 284 284 284 281 278 276 275 273 271 265 257 252 249 247 246 247 248 246 245 246 247 247 246 244 242
302 306 308 307 307 308 310 310 310 310 311 314 321 327 329 327 323 317 316 322 329 333 334 339 342 341 341 343 341 337 338 342 341 339 340 335 320 303 295 305 316 322 320 314 315 321 328 332 335 328 315 306 298 291 285 279 276 276 275 274 274 275 275 275 276 277 278 278 277 277 275 268 258 251 248 245 245 245 244 244 245 245 246 248 247 244 240
306 308 307 305 305 307 308 309 308 308 309 315 324 332 336 334 329 324 323 330 337 338 338 342 347 347 346 346 346 344 344 346 346 346 351 355 352 335 318 319 324 327 327 324 326 333 338 337 335 333 328 321 312 305 301 296 291 288 285 282 278 274 270 268 267 267 269 274 277 276 272 264 256 250 246 244 243 242 241 241 240 239 240 242 243 242 242
308 308 304 301 303 306 306 306 307 308 309 314 324 334 338 338 337 333 328 329 335 339 342 345 348 346 344 344 345 342 338 340 347 352 353 355 2 6 357 344 335 332 335 338 335 333 332 327 322 324 325 322 315 310 308 306 303 299 294 288 283 276 270 266 266 266 265 266 268 267 261 255 254 254 252 250 248 246 245 244 243 243 245 248 247 246 247
304 303 302 301 302 303 302 302 305 308 309 311 320 333 341 344 345 342 337 333 335 339 345 349 348 345 343 345 348 350 353 1 11 14 9 359 353 356 2 6 5 360 359 0 357 355 354 346 332 328 328 325 318 313 308 305 302 300 294 288 281 274 266 261 260 259 255 251 251 254 254 255 257 257 255 254 254 253 252 250 250 250 251 252 248 242 242
299 301 302 301 300 302 303 304 307 310 311 312 319 331 341 347 349 346 346 348 347 346 350 356 355 352 353 357 358 358 7 29 39 39 35 30 22 15 16 23 28 26 25 31 37 42 38 19 2 358 354 345 334 325 318 313 308 301 293 285 277 271 265 258 252 249 248 249 252 254 255 257 259 259 257 257 260 263 264 262 259 257 256 254 251 246 245
298 299 301 302 302 304 307 309 309 310 311 312 313 321 332 345 349 347 352 1 2 356 359 8 12 12 16 19 14 3 1 19 40 50 51 49 44 38 34 32 34 42 50 52 48 41 32 24 21 21 16 8 3 1 354 341 328 316 303 290 276 266 258 249 240 238 241 247 251 251 252 256 260 261 262 261 263 269 274 272 268 265 262 259 257 253 247
299 296 299 302 303 305 308 309 308 306 305 306 308 312 322 338 345 345 351 1 5 2 4 13 17 18 23 30 31 28 26 27 33 45 54 55 51 46 43 42 45 53 59 58 51 42 35 31 30 30 28 27 29 30 26 18 7 357 345 326 296 274 259 243 230 229 234 240 243 242 244 249 254 259 265 266 268 276 281 279 272 263 251 239 231 225 219
303 300 301 303 304 304 306 306 302 298 298 305 313 316 318 328 338 343 347 351 352 354 3 14 19 22 31 41 48 52 54 55 54 55 58 58 55 50 49 50 52 55 57 55 50 43 38 35 36 39 41 43 44 44 42 41 39 37 38 42 48 56 82 127 158 178 194 207 215 218 218 219 223 233 247 253 258 266 266 249 218 194 182 174 168 162 156
307 306 304 301 300 301 301 298 296 298 302 310 319 322 318 317 325 334 341 347 349 355 15 34 38 39 46 54 57 58 59 61 62 63 64 64 61 56 53 53 55 57 58 57 51 45 41 41 45 49 51 51 51 51 51 51 50 49 52 58 64 70 78 86 89 89 89 89 88 88 91 95 99 99 97 96 98 101 104 107 111 117 123 125 123 119 117
305 303 302 302 304 306 303 297 293 300 307 313 323 330 328 320 315 318 333 352 8 27 45 48 45 47 53 56 56 56 58 61 64 65 67 68 66 63 60 58 58 59 61 61 59 56 52 50 52 56 60 60 57 56 58 60 61 60 60 62 65 67 71 75 78 79 80 82 84 84 86 89 91 92 91 91 92 92 93 93 96 99 102 103 105 107 109
309 307 309 314 316 315 311 305 299 304 313 322 333 341 341 332 320 316 333 4 28 53 66 57 47 49 55 58 60 63 63 62 64 68 71 71 69 66 63 61 59 59 60 61 61 61 59 58 58 60 62 63 63 62 64 67 68 67 67 67 69 70 71 73 76 78 79 81 82 84 85 88 91 92 92 92 93 93 93 94 97 98 99 100 103 106 109